Location: Colonial Hills
(40.5656°N, 77.6119°W)
Time: 14:50:17
(UTC+00:00)

X-37B - Pass Details

Date: 04 December 2020
Orbit: 384 x 390 km, 45.0° (Epoch: 02 January)

Event Time Altitude Azimuth Distance (km) Brightness Sun altitude
Rises 22:14:44 0° 277° (W) 2,260 5.6 -6.1°
Reaches altitude 10° 22:16:54 10° 286° (WNW) 1,408 4.2 -6.5°
Maximum altitude 22:19:52 35° 355° (N) 640 1.5 -7.0°
Enters shadow 22:22:49 10° 64° (ENE) 1,411 2.7 -7.5°
